New version


Hourly Weather Vladimir

Today, 24 July, Saturday

Time Temperature Precipitation Wind Pressure Humidity
00:00 +15°C° 0 mm 2 mps 746 mmHg 76%
01:00 +14°C° 0 mm 2 mps 746 mmHg 79%
02:00 +13°C° 0 mm 2 mps 746 mmHg 82%
03:00 +12°C° 0 mm 2 mps 746 mmHg 87%
04:00 +12°C° 0 mm 2 mps 747 mmHg 86%
05:00 +13°C° 0 mm 2 mps 747 mmHg 84%
06:00 +13°C° 0 mm 2 mps 747 mmHg 83%
07:00 +14°C° 0.1 mm 2 mps 747 mmHg 78%
08:00 +16°C° 0.1 mm 2 mps 748 mmHg 74%
09:00 +17°C° 0 mm 2 mps 748 mmHg 69%
10:00 +18°C° 0.2 mm 2 mps 749 mmHg 62%
11:00 +19°C° 0.2 mm 3 mps 749 mmHg 56%
12:00 +20°C° 0.2 mm 3 mps 749 mmHg 49%
13:00 +20°C° 0 mm 3 mps 749 mmHg 48%
14:00 +20°C° 0 mm 3 mps 749 mmHg 46%
15:00 +20°C° 0 mm 2 mps 750 mmHg 45%
16:00 +20°C° 0 mm 2 mps 750 mmHg 45%
17:00 +20°C° 0 mm 2 mps 750 mmHg 45%
18:00 +20°C° 0 mm 2 mps 751 mmHg 44%
19:00 +19°C° 0 mm 2 mps 751 mmHg 47%
20:00 +18°C° 0 mm 2 mps 752 mmHg 49%
21:00 +17°C° 0 mm 2 mps 752 mmHg 51%
22:00 +16°C° 0 mm 2 mps 752 mmHg 52%
23:00 +16°C° 0 mm 1 mps 753 mmHg 53%

Tomorrow, 25 July, Sunday

Time Temperature Precipitation Wind Pressure Humidity
00:00 +16°C° 0 mm 1 mps 753 mmHg 53%
01:00 +15°C° 0 mm 1 mps 753 mmHg 56%
02:00 +14°C° 0 mm 1 mps 754 mmHg 58%
03:00 +14°C° 0 mm 1 mps 754 mmHg 61%
04:00 +14°C° 0 mm 1 mps 754 mmHg 62%
05:00 +14°C° 0 mm 1 mps 755 mmHg 63%
06:00 +14°C° 0 mm 1 mps 755 mmHg 64%
07:00 +16°C° 0 mm 1 mps 755 mmHg 56%
08:00 +19°C° 0 mm 1 mps 755 mmHg 49%
09:00 +21°C° 0 mm 1 mps 755 mmHg 41%
10:00 +21°C° 0 mm 2 mps 756 mmHg 38%
11:00 +23°C° 0 mm 2 mps 756 mmHg 34%
12:00 +24°C° 0 mm 2 mps 756 mmHg 30%
13:00 +24°C° 0 mm 3 mps 756 mmHg 31%
14:00 +24°C° 0 mm 3 mps 756 mmHg 32%
15:00 +24°C° 0 mm 3 mps 756 mmHg 32%
16:00 +24°C° 0 mm 3 mps 756 mmHg 34%
17:00 +24°C° 0 mm 2 mps 756 mmHg 36%
18:00 +23°C° 0 mm 2 mps 756 mmHg 38%
19:00 +21°C° 0 mm 2 mps 756 mmHg 43%
20:00 +19°C° 0 mm 2 mps 756 mmHg 48%
21:00 +18°C° 0 mm 1 mps 756 mmHg 53%
22:00 +18°C° 0 mm 1 mps 757 mmHg 56%
23:00 +16°C° 0 mm 1 mps 757 mmHg 59%

Day after tomorrow, 26 July, Monday

Time Temperature Precipitation Wind Pressure Humidity
00:00 +15°C° 0 mm 1 mps 757 mmHg 62%
01:00 +15°C° 0 mm 1 mps 757 mmHg 62%
02:00 +15°C° 0 mm 2 mps 757 mmHg 61%
03:00 +15°C° 0 mm 2 mps 757 mmHg 61%
04:00 +16°C° 0 mm 2 mps 757 mmHg 60%
05:00 +16°C° 0 mm 1 mps 757 mmHg 60%
06:00 +18°C° 0 mm 1 mps 758 mmHg 59%
07:00 +18°C° 0 mm 2 mps 758 mmHg 57%
08:00 +19°C° 0 mm 2 mps 758 mmHg 56%
09:00 +19°C° 0 mm 2 mps 758 mmHg 55%
10:00 +21°C° 0 mm 2 mps 758 mmHg 50%
11:00 +22°C° 0 mm 3 mps 758 mmHg 44%
12:00 +25°C° 0 mm 3 mps 758 mmHg 39%
13:00 +25°C° 0 mm 3 mps 758 mmHg 38%
14:00 +26°C° 0 mm 3 mps 757 mmHg 38%
15:00 +26°C° 0 mm 3 mps 757 mmHg 37%
16:00 +26°C° 0 mm 3 mps 757 mmHg 39%
17:00 +25°C° 0 mm 3 mps 757 mmHg 41%
18:00 +25°C° 0 mm 2 mps 757 mmHg 43%
19:00 +23°C° 0 mm 2 mps 757 mmHg 48%
20:00 +21°C° 0 mm 2 mps 757 mmHg 52%
21:00 +19°C° 0 mm 2 mps 757 mmHg 57%
22:00 +19°C° 0 mm 2 mps 757 mmHg 58%
23:00 +19°C° 0 mm 2 mps 757 mmHg 59%

27 July, Tuesday

Time Temperature Precipitation Wind Pressure Humidity
00:00 +18°C° 0 mm 2 mps 757 mmHg 60%
01:00 +17°C° 0 mm 2 mps 757 mmHg 63%
02:00 +17°C° 0 mm 2 mps 757 mmHg 67%
03:00 +16°C° 0 mm 2 mps 757 mmHg 71%
04:00 +16°C° 0 mm 2 mps 757 mmHg 71%
05:00 +17°C° 0 mm 2 mps 757 mmHg 70%
06:00 +17°C° 0 mm 2 mps 757 mmHg 70%
07:00 +20°C° 0 mm 2 mps 757 mmHg 63%
08:00 +23°C° 0 mm 2 mps 757 mmHg 55%
09:00 +26°C° 0 mm 3 mps 756 mmHg 48%
10:00 +27°C° 0 mm 3 mps 756 mmHg 44%
11:00 +28°C° 0 mm 3 mps 756 mmHg 39%
12:00 +30°C° 0 mm 3 mps 756 mmHg 34%
13:00 +29°C° 0 mm 3 mps 755 mmHg 35%
14:00 +29°C° 0 mm 3 mps 755 mmHg 35%
15:00 +29°C° 0 mm 3 mps 755 mmHg 36%
16:00 +28°C° 0 mm 3 mps 755 mmHg 39%
17:00 +27°C° 0 mm 4 mps 754 mmHg 43%
18:00 +27°C° 0 mm 4 mps 754 mmHg 46%
19:00 +25°C° 0 mm 3 mps 754 mmHg 53%
20:00 +22°C° 0 mm 3 mps 754 mmHg 60%
21:00 +20°C° 0 mm 2 mps 754 mmHg 67%
22:00 +19°C° 0 mm 2 mps 754 mmHg 71%
23:00 +19°C° 0 mm 1 mps 754 mmHg 75%

28 July, Wednesday

Time Temperature Precipitation Wind Pressure Humidity
00:00 +18°C° 0 mm 1 mps 754 mmHg 79%
01:00 +18°C° 0 mm 1 mps 754 mmHg 80%
02:00 +18°C° 0 mm 1 mps 754 mmHg 81%
03:00 +15°C° 0 mm 0 mps 754 mmHg 82%
04:00 +18°C° 0 mm 1 mps 754 mmHg 80%
05:00 +18°C° 0 mm 1 mps 754 mmHg 79%
06:00 +19°C° 0 mm 1 mps 754 mmHg 78%
07:00 +21°C° 0 mm 1 mps 754 mmHg 70%
08:00 +23°C° 0 mm 1 mps 753 mmHg 61%
09:00 +26°C° 0 mm 1 mps 753 mmHg 53%
10:00 +27°C° 0 mm 1 mps 753 mmHg 48%
11:00 +29°C° 0 mm 2 mps 753 mmHg 42%
12:00 +30°C° 0 mm 2 mps 752 mmHg 37%
13:00 +29°C° 0 mm 2 mps 752 mmHg 40%
14:00 +28°C° 0 mm 2 mps 752 mmHg 42%
15:00 +28°C° 0 mm 2 mps 751 mmHg 45%
16:00 +27°C° 0.1 mm 2 mps 751 mmHg 50%
17:00 +26°C° 0.1 mm 2 mps 751 mmHg 54%
18:00 +25°C° 0.1 mm 2 mps 751 mmHg 58%
19:00 +24°C° 0.1 mm 2 mps 750 mmHg 63%
20:00 +21°C° 0.1 mm 2 mps 750 mmHg 69%
21:00 +20°C° 0.1 mm 2 mps 750 mmHg 74%
22:00 +20°C° 0 mm 2 mps 750 mmHg 76%
23:00 +19°C° 0 mm 2 mps 749 mmHg 77%

29 July, Thursday

Time Temperature Precipitation Wind Pressure Humidity
00:00 +19°C° 0 mm 2 mps 749 mmHg 79%
01:00 +18°C° 0 mm 2 mps 749 mmHg 81%
02:00 +18°C° 0 mm 2 mps 749 mmHg 82%
03:00 +17°C° 0 mm 2 mps 748 mmHg 84%
04:00 +18°C° 0 mm 2 mps 748 mmHg 82%
05:00 +18°C° 0 mm 2 mps 748 mmHg 81%
06:00 +19°C° 0 mm 2 mps 748 mmHg 79%
07:00 +21°C° 0 mm 2 mps 748 mmHg 70%
08:00 +24°C° 0 mm 2 mps 747 mmHg 61%
09:00 +26°C° 0 mm 3 mps 747 mmHg 52%
10:00 +27°C° 0 mm 3 mps 747 mmHg 49%
11:00 +28°C° 0 mm 3 mps 747 mmHg 46%
12:00 +29°C° 0 mm 3 mps 747 mmHg 43%
13:00 +29°C° 0 mm 2 mps 747 mmHg 44%
14:00 +29°C° 0 mm 2 mps 747 mmHg 44%
15:00 +29°C° 0 mm 2 mps 746 mmHg 44%
16:00 +28°C° 0 mm 2 mps 746 mmHg 48%
17:00 +27°C° 0 mm 2 mps 746 mmHg 52%
18:00 +26°C° 0 mm 2 mps 746 mmHg 56%
19:00 +24°C° 0.1 mm 2 mps 746 mmHg 64%
20:00 +21°C° 0.1 mm 2 mps 746 mmHg 73%
21:00 +20°C° 0.1 mm 1 mps 747 mmHg 81%
22:00 +20°C° 0 mm 1 mps 747 mmHg 83%
23:00 +19°C° 0 mm 1 mps 747 mmHg 84%
Show more